| time (UTC) | temp C | wind direction | speed KPH | gust KPH | rain 1hr cm | rain 24hr cm | rain mn cm | humidity % | barometer mb |
| 20260505204657 | 11 | 167 | 1.6 | 11.3 | 0.00 | 0.00 | 0.00 | 37 | 1018.8 |
| 20260505204158 | 11 | 94 | 0.0 | 14.5 | 0.00 | 0.00 | 0.00 | 37 | 1018.9 |
| 20260505203658 | 11 | 77 | 3.2 | 14.5 | 0.00 | 0.00 | 0.00 | 36 | 1018.9 |
| 20260505203158 | 11 | 195 | 4.8 | 17.7 | 0.00 | 0.00 | 0.00 | 37 | 1018.8 |
| 20260505202654 | 12 | 136 | 8.0 | 17.7 | 0.00 | 0.00 | 0.00 | 37 | 1019.1 |
| 20260505202149 | 12 | 130 | 4.8 | 12.9 | 0.00 | 0.00 | 0.00 | 36 | 1018.9 |
| 20260505201649 | 12 | 130 | 3.2 | 11.3 | 0.00 | 0.00 | 0.00 | 36 | 1018.9 |
| 20260505201412 | 12 | 313 | 3.2 | 16.1 | 0.00 | 0.00 | 0.00 | 38 | 1019.2 |
| 20260505200652 | 12 | 142 | 1.6 | 20.9 | 0.00 | 0.00 | 0.00 | 35 | 1018.9 |
| 20260505200150 | 13 | 132 | 4.8 | 20.9 | 0.00 | 0.00 | 0.00 | 37 | 1018.9 |
| 20260505195645 | 13 | 344 | 6.4 | 17.7 | 0.00 | 0.00 | 0.00 | 37 | 1018.9 |
| 20260505195144 | 13 | 55 | 3.2 | 16.1 | 0.00 | 0.00 | 0.00 | 38 | 1018.8 |
| 20260505194905 | 12 | 147 | 1.6 | 14.5 | 0.00 | 0.00 | 0.00 | 39 | 1018.8 |
| 20260505194411 | 12 | 91 | 1.6 | 25.7 | 0.00 | 0.00 | 0.00 | 38 | 1018.8 |
| 20260505193902 | 13 | 84 | 8.0 | 25.7 | 0.00 | 0.00 | 0.00 | 36 | 1018.8 |
| 20260505193140 | 13 | 69 | 3.2 | 17.7 | 0.00 | 0.00 | 0.00 | 37 | 1018.7 |
| 20260505192635 | 12 | 101 | 1.6 | 17.7 | 0.00 | 0.00 | 0.00 | 40 | 1018.7 |
| 20260505192130 | 12 | 111 | 3.2 | 19.3 | 0.00 | 0.00 | 0.00 | 36 | 1018.7 |
| 20260505191630 | 12 | 128 | 8.0 | 19.3 | 0.00 | 0.00 | 0.00 | 36 | 1018.8 |
| 20260505191126 | 12 | 146 | 1.6 | 17.7 | 0.00 | 0.00 | 0.00 | 38 | 1018.7 |
| 20260505190625 | 12 | 76 | 6.4 | 17.7 | 0.00 | 0.00 | 0.00 | 37 | 1018.8 |
| 20260505190349 | 12 | 75 | 3.2 | 12.9 | 0.00 | 0.00 | 0.00 | 37 | 1018.7 |
| 20260505185845 | 12 | 41 | 1.6 | 16.1 | 0.00 | 0.00 | 0.00 | 40 | 1018.7 |
| 20260505185718 | 12 | 147 | 4.8 | 11.3 | 0.00 | 0.00 | 0.00 | 37 | 1018.7 |
| 20260505184627 | 12 | 75 | 3.2 | 16.1 | 0.00 | 0.00 | 0.00 | 39 | 1018.7 |
| 20260505184126 | 12 | 318 | 1.6 | 17.7 | 0.00 | 0.00 | 0.00 | 39 | 1018.8 |
| 20260505183622 | 12 | 150 | 4.8 | 17.7 | 0.00 | 0.00 | 0.00 | 37 | 1018.8 |
| 20260505183117 | 12 | 74 | 4.8 | 14.5 | 0.00 | 0.00 | 0.00 | 40 | 1018.8 |
| 20260505182618 | 12 | 103 | 3.2 | 12.9 | 0.00 | 0.00 | 0.00 | 38 | 1018.8 |
| 20260505182338 | 11 | 250 | 1.6 | 12.9 | 0.00 | 0.00 | 0.00 | 40 | 1018.8 |
| 20260505181613 | 11 | 136 | 3.2 | 16.1 | 0.00 | 0.00 | 0.00 | 41 | 1018.9 |
| 20260505181115 | 11 | 169 | 3.2 | 19.3 | 0.00 | 0.00 | 0.00 | 42 | 1018.9 |
| 20260505180613 | 11 | 114 | 9.7 | 19.3 | 0.00 | 0.00 | 0.00 | 41 | 1018.9 |
| 20260505180108 | 10 | 107 | 4.8 | 12.9 | 0.00 | 0.00 | 0.00 | 45 | 1018.9 |
| 20260505175603 | 10 | 321 | 4.8 | 17.7 | 0.00 | 0.00 | 0.00 | 43 | 1018.8 |
| 20260505175102 | 10 | 342 | 1.6 | 17.7 | 0.00 | 0.00 | 0.00 | 44 | 1018.8 |
| 20260505174822 | 10 | 107 | 1.6 | 14.5 | 0.00 | 0.00 | 0.00 | 41 | 1018.9 |
| 20260505174103 | 10 | 98 | 1.6 | 14.5 | 0.00 | 0.00 | 0.00 | 43 | 1018.8 |
| 20260505173603 | 10 | 132 | 4.8 | 14.5 | 0.00 | 0.00 | 0.00 | 43 | 1018.8 |
| 20260505173103 | 10 | 101 | 4.8 | 14.5 | 0.00 | 0.00 | 0.00 | 43 | 1018.8 |
| 20260505172824 | 10 | 351 | 1.6 | 14.5 | 0.00 | 0.00 | 0.00 | 44 | 1018.8 |
| 20260505172314 | 11 | 37 | 3.2 | 11.3 | 0.00 | 0.00 | 0.00 | 43 | 1018.7 |
| 20260505171554 | 11 | 330 | 1.6 | 11.3 | 0.00 | 0.00 | 0.00 | 42 | 1018.7 |
| 20260505171326 | 11 | 71 | 1.6 | 6.4 | 0.00 | 0.00 | 0.00 | 41 | 1018.7 |
| 20260505170554 | 11 | 71 | 1.6 | 8.0 | 0.00 | 0.00 | 0.00 | 42 | 1018.7 |
| 20260505170050 | 11 | 125 | 3.2 | 8.0 | 0.00 | 0.00 | 0.00 | 41 | 1018.6 |
| 20260505165544 | 11 | 96 | 1.6 | 14.5 | 0.00 | 0.00 | 0.00 | 42 | 1018.8 |
| 20260505165047 | 11 | 60 | 3.2 | 14.5 | 0.00 | 0.00 | 0.00 | 42 | 1018.8 |
| 20260505164547 | 11 | 5 | 4.8 | 12.9 | 0.00 | 0.00 | 0.00 | 42 | 1018.8 |
| 20260505164046 | 11 | 161 | 0.0 | 11.3 | 0.00 | 0.00 | 0.00 | 44 | 1018.7 |
| 20260505163545 | 11 | 350 | 3.2 | 11.3 | 0.00 | 0.00 | 0.00 | 44 | 1018.7 |
| 20260505163040 | 11 | 152 | 0.0 | 11.3 | 0.00 | 0.00 | 0.00 | 44 | 1018.8 |
| 20260505162535 | 11 | 105 | 3.2 | 6.4 | 0.00 | 0.00 | 0.00 | 43 | 1018.7 |
| 20260505162035 | 10 | 111 | 1.6 | 9.7 | 0.00 | 0.00 | 0.00 | 45 | 1018.7 |
| 20260505161536 | 10 | 47 | 0.0 | 16.1 | 0.00 | 0.00 | 0.00 | 45 | 1018.7 |
| 20260505161036 | 10 | 109 | 4.8 | 16.1 | 0.00 | 0.00 | 0.00 | 43 | 1018.7 |
| 20260505160536 | 10 | 319 | 1.6 | 11.3 | 0.00 | 0.00 | 0.00 | 46 | 1018.6 |
| 20260505153012 | 8 | 107 | 3.2 | 12.9 | 0.00 | 0.00 | 0.00 | 48 | 1018.9 |
| 20260505152508 | 8 | 117 | 3.2 | 12.9 | 0.00 | 0.00 | 0.00 | 48 | 1018.9 |
| 20260505152003 | 8 | 310 | 1.6 | 11.3 | 0.00 | 0.00 | 0.00 | 47 | 1018.9 |
| 20260505151503 | 8 | 115 | 1.6 | 12.9 | 0.00 | 0.00 | 0.00 | 50 | 1018.9 |
| 20260505151002 | 8 | 99 | 1.6 | 14.5 | 0.00 | 0.00 | 0.00 | 48 | 1018.9 |
| 20260505150502 | 8 | 98 | 3.2 | 14.5 | 0.00 | 0.00 | 0.00 | 49 | 1018.9 |
| 20260505140424 | 5 | 137 | 0.0 | 4.8 | 0.00 | 0.00 | 0.00 | 63 | 1018.5 |
| 20260505124851 | 0 | 91 | 0.0 | 1.6 | 0.00 | 0.00 | 0.00 | 85 | 1017.9 |
| 20260505124351 | 0 | 91 | 0.0 | 0.0 | 0.00 | 0.00 | 0.00 | 85 | 1017.8 |
| 20260505123847 | 0 | 91 | 0.0 | 0.0 | 0.00 | 0.00 | 0.00 | 85 | 1017.9 |
| 20260505123342 | 0 | 91 | 0.0 | 0.0 | 0.00 | 0.00 | 0.00 | 84 | 1017.8 |
| 20260505122841 | 0 | 91 | 0.0 | 0.0 | 0.00 | 0.00 | 0.00 | 84 | 1017.8 |
| 20260505122343 | 0 | 91 | 0.0 | 0.0 | 0.00 | 0.00 | 0.00 | 84 | 1017.7 |
| 20260505121832 | 0 | 91 | 0.0 | 0.0 | 0.00 | 0.00 | 0.00 | 84 | 1017.7 |
| 20260505121551 | 0 | 91 | 0.0 | 3.2 | 0.00 | 0.00 | 0.00 | 84 | 1017.6 |
| 20260505120827 | 0 | 91 | 0.0 | 3.2 | 0.00 | 0.00 | 0.00 | 84 | 1017.6 |
| 20260505120322 | 0 | 91 | 0.0 | 0.0 | 0.00 | 0.00 | 0.00 | 84 | 1017.5 |
| 20260505115812 | 0 | 91 | 0.0 | 0.0 | 0.00 | 0.00 | 0.00 | 84 | 1017.5 |
| 20260505115307 | 0 | 91 | 0.0 | 0.0 | 0.00 | 0.00 | 0.00 | 84 | 1017.6 |
| 20260505114809 | 0 | 91 | 0.0 | 0.0 | 0.00 | 0.00 | 0.00 | 84 | 1017.5 |
| 20260505114311 | 0 | 91 | 0.0 | 0.0 | 0.00 | 0.00 | 0.00 | 83 | 1017.5 |
| 20260505114028 | 0 | 91 | 0.0 | 0.0 | 0.00 | 0.00 | 0.00 | 83 | 1017.6 |
| 20260505113303 | 0 | 91 | 0.0 | 0.0 | 0.00 | 0.00 | 0.00 | 83 | 1017.6 |
| 20260505112806 | 0 | 91 | 0.0 | 0.0 | 0.00 | 0.00 | 0.00 | 83 | 1017.5 |
| 20260505112243 | 0 | 91 | 0.0 | 0.0 | 0.00 | 0.00 | 0.00 | 83 | 1017.5 |
| 20260505111743 | 0 | 91 | 0.0 | 1.6 | 0.00 | 0.00 | 0.00 | 83 | 1017.5 |
| 20260505111239 | 0 | 91 | 0.0 | 1.6 | 0.00 | 0.00 | 0.00 | 83 | 1017.5 |
| 20260505110739 | 0 | 91 | 0.0 | 0.0 | 0.00 | 0.00 | 0.00 | 83 | 1017.5 |
| 20260505110242 | 0 | 91 | 0.0 | 0.0 | 0.00 | 0.00 | 0.00 | 83 | 1017.5 |
| 20260505102210 | 1 | 91 | 0.0 | 0.0 | 0.00 | 0.00 | 0.00 | 82 | 1017.5 |
| 20260505101655 | 1 | 91 | 0.0 | 0.0 | 0.00 | 0.00 | 0.00 | 82 | 1017.4 |
| 20260505101405 | 1 | 91 | 0.0 | 0.0 | 0.00 | 0.00 | 0.00 | 82 | 1017.4 |
| 20260505100645 | 1 | 91 | 0.0 | 0.0 | 0.00 | 0.00 | 0.00 | 81 | 1017.4 |
| 20260505100145 | 1 | 91 | 0.0 | 0.0 | 0.00 | 0.00 | 0.00 | 81 | 1017.4 |
| 20260505095901 | 1 | 91 | 0.0 | 0.0 | 0.00 | 0.00 | 0.00 | 80 | 1017.4 |
| 20260505095139 | 1 | 91 | 0.0 | 0.0 | 0.00 | 0.00 | 0.00 | 79 | 1017.4 |
| 20260505094624 | 2 | 91 | 0.0 | 0.0 | 0.00 | 0.00 | 0.00 | 79 | 1017.4 |
| 20260505094122 | 2 | 91 | 0.0 | 1.6 | 0.00 | 0.00 | 0.00 | 79 | 1017.3 |
| 20260505093613 | 2 | 91 | 0.0 | 1.6 | 0.00 | 0.00 | 0.00 | 79 | 1017.2 |
| 20260505093106 | 2 | 91 | 0.0 | 0.0 | 0.00 | 0.00 | 0.00 | 79 | 1017.0 |
| 20260505092830 | 2 | 91 | 0.0 | 0.0 | 0.00 | 0.00 | 0.00 | 79 | 1017.2 |
| 20260505092057 | 2 | 91 | 0.0 | 0.0 | 0.00 | 0.00 | 0.00 | 79 | 1017.2 |
| 20260505091824 | 2 | 91 | 0.0 | 0.0 | 0.00 | 0.00 | 0.00 | 79 | 1017.3 |
| 20260505091057 | 2 | 91 | 0.0 | 0.0 | 0.00 | 0.00 | 0.00 | 79 | 1017.3 |
| 20260505090557 | 2 | 91 | 0.0 | 0.0 | 0.00 | 0.00 | 0.00 | 80 | 1017.3 |
| 20260505090534 | 2 | 91 | 0.0 | 0.0 | 0.00 | 0.00 | 0.00 | 79 | 1017.3 |
| 20260505085547 | 2 | 91 | 0.0 | 0.0 | 0.00 | 0.00 | 0.00 | 79 | 1017.4 |
| 20260505085045 | 2 | 91 | 0.0 | 0.0 | 0.00 | 0.00 | 0.00 | 80 | 1017.4 |
| 20260505084535 | 2 | 91 | 0.0 | 1.6 | 0.00 | 0.00 | 0.00 | 80 | 1017.4 |
| 20260505084028 | 2 | 91 | 0.0 | 1.6 | 0.00 | 0.00 | 0.00 | 80 | 1017.4 |
| 20260505083523 | 2 | 91 | 0.0 | 0.0 | 0.00 | 0.00 | 0.00 | 79 | 1017.4 |
| 20260505083025 | 2 | 91 | 0.0 | 0.0 | 0.00 | 0.00 | 0.00 | 80 | 1017.4 |
| 20260505082519 | 2 | 91 | 0.0 | 1.6 | 0.00 | 0.00 | 0.00 | 80 | 1017.5 |
| 20260505082018 | 2 | 91 | 0.0 | 1.6 | 0.00 | 0.00 | 0.00 | 81 | 1017.5 |
| 20260505081509 | 2 | 91 | 0.0 | 0.0 | 0.00 | 0.00 | 0.00 | 81 | 1017.4 |
| 20260505081009 | 2 | 91 | 0.0 | 1.6 | 0.00 | 0.00 | 0.00 | 81 | 1017.4 |
| 20260505080509 | 2 | 91 | 0.0 | 1.6 | 0.00 | 0.00 | 0.00 | 80 | 1017.4 |
| 20260505080230 | 2 | 91 | 0.0 | 0.0 | 0.00 | 0.00 | 0.00 | 81 | 1017.5 |
| 20260505075504 | 2 | 91 | 0.0 | 0.0 | 0.00 | 0.00 | 0.00 | 80 | 1017.5 |
| 20260505075004 | 2 | 91 | 0.0 | 0.0 | 0.00 | 0.00 | 0.00 | 80 | 1017.5 |
| 20260505074504 | 2 | 91 | 0.0 | 0.0 | 0.00 | 0.00 | 0.00 | 80 | 1017.5 |
| 20260505074007 | 2 | 91 | 0.0 | 1.6 | 0.00 | 0.00 | 0.00 | 81 | 1017.5 |
| 20260505073502 | 2 | 91 | 0.0 | 1.6 | 0.00 | 0.00 | 0.00 | 80 | 1017.4 |
| 20260505073442 | 2 | 91 | 0.0 | 3.2 | 0.00 | 0.00 | 0.00 | 80 | 1017.4 |
| 20260505072500 | 2 | 91 | 0.0 | 3.2 | 0.00 | 0.00 | 0.00 | 80 | 1017.4 |
| 20260505072000 | 3 | 91 | 0.0 | 1.6 | 0.00 | 0.00 | 0.00 | 80 | 1017.3 |
| 20260505071455 | 3 | 91 | 0.0 | 1.6 | 0.00 | 0.00 | 0.00 | 79 | 1017.3 |
| 20260505071442 | 3 | 91 | 0.0 | 3.2 | 0.00 | 0.00 | 0.00 | 80 | 1017.3 |
| 20260505070702 | 3 | 91 | 0.0 | 1.6 | 0.00 | 0.00 | 0.00 | 80 | 1017.3 |
| 20260505065931 | 3 | 91 | 0.0 | 1.6 | 0.00 | 0.00 | 0.00 | 80 | 1017.3 |
| 20260505065659 | 3 | 91 | 0.0 | 0.0 | 0.00 | 0.00 | 0.00 | 79 | 1017.3 |
| 20260505064932 | 3 | 91 | 0.0 | 0.0 | 0.00 | 0.00 | 0.00 | 79 | 1017.3 |
| 20260505064430 | 3 | 91 | 0.0 | 0.0 | 0.00 | 0.00 | 0.00 | 79 | 1017.3 |
| 20260505063931 | 3 | 91 | 0.0 | 1.6 | 0.00 | 0.00 | 0.00 | 79 | 1017.2 |
| 20260505063426 | 3 | 91 | 0.0 | 3.2 | 0.00 | 0.00 | 0.00 | 79 | 1017.3 |
| 20260505062906 | 3 | 91 | 0.0 | 3.2 | 0.00 | 0.00 | 0.00 | 79 | 1017.2 |
| 20260505062406 | 3 | 91 | 0.0 | 0.0 | 0.00 | 0.00 | 0.00 | 79 | 1016.9 |
| 20260505061904 | 3 | 91 | 0.0 | 0.0 | 0.00 | 0.00 | 0.00 | 78 | 1017.2 |
| 20260505061402 | 3 | 91 | 0.0 | 0.0 | 0.00 | 0.00 | 0.00 | 78 | 1017.2 |
| 20260505060902 | 3 | 91 | 0.0 | 0.0 | 0.00 | 0.00 | 0.00 | 77 | 1017.2 |
| 20260505060357 | 3 | 91 | 0.0 | 0.0 | 0.00 | 0.00 | 0.00 | 77 | 1017.3 |
| 20260505055857 | 3 | 91 | 0.0 | 0.0 | 0.00 | 0.00 | 0.00 | 77 | 1017.2 |
| 20260505055357 | 3 | 91 | 0.0 | 0.0 | 0.00 | 0.00 | 0.00 | 76 | 1017.0 |
| 20260505054853 | 3 | 91 | 0.0 | 0.0 | 0.00 | 0.00 | 0.00 | 76 | 1017.0 |
| 20260505054347 | 3 | 91 | 0.0 | 0.0 | 0.00 | 0.00 | 0.00 | 76 | 1017.0 |
| 20260505053847 | 3 | 91 | 0.0 | 1.6 | 0.00 | 0.00 | 0.00 | 76 | 1016.9 |
| 20260505053348 | 4 | 91 | 0.0 | 1.6 | 0.00 | 0.00 | 0.00 | 76 | 1016.9 |
| 20260505052848 | 4 | 91 | 0.0 | 0.0 | 0.00 | 0.00 | 0.00 | 76 | 1016.9 |
| 20260505052338 | 4 | 91 | 0.0 | 0.0 | 0.00 | 0.00 | 0.00 | 75 | 1016.9 |
| 20260505051829 | 4 | 91 | 0.0 | 3.2 | 0.00 | 0.00 | 0.00 | 75 | 1016.9 |
| 20260505051319 | 4 | 91 | 0.0 | 3.2 | 0.00 | 0.00 | 0.00 | 76 | 1016.9 |
| 20260505050816 | 5 | 91 | 0.0 | 1.6 | 0.00 | 0.00 | 0.00 | 74 | 1016.9 |
| 20260505050259 | 5 | 91 | 0.0 | 0.0 | 0.00 | 0.00 | 0.00 | 74 | 1016.9 |
| 20260505041750 | 6 | 91 | 0.0 | 1.6 | 0.00 | 0.00 | 0.00 | 71 | 1016.9 |
| 20260505041252 | 6 | 91 | 0.0 | 1.6 | 0.00 | 0.00 | 0.00 | 70 | 1016.8 |
| 20260505040748 | 6 | 91 | 0.0 | 0.0 | 0.00 | 0.00 | 0.00 | 70 | 1016.8 |
| 20260505040241 | 6 | 91 | 0.0 | 0.0 | 0.00 | 0.00 | 0.00 | 69 | 1016.7 |
| 20260505040215 | 6 | 91 | 0.0 | 0.0 | 0.00 | 0.00 | 0.00 | 68 | 1016.7 |
| 20260505035230 | 6 | 91 | 0.0 | 0.0 | 0.00 | 0.00 | 0.00 | 67 | 1016.6 |
| 20260505034953 | 7 | 91 | 0.0 | 0.0 | 0.00 | 0.00 | 0.00 | 66 | 1016.6 |
| 20260505034227 | 7 | 91 | 0.0 | 0.0 | 0.00 | 0.00 | 0.00 | 65 | 1016.6 |
| 20260505033726 | 7 | 91 | 0.0 | 0.0 | 0.00 | 0.00 | 0.00 | 63 | 1016.5 |
| 20260505033216 | 8 | 91 | 0.0 | 0.0 | 0.00 | 0.00 | 0.00 | 62 | 1016.5 |
| 20260505032709 | 8 | 91 | 0.0 | 0.0 | 0.00 | 0.00 | 0.00 | 60 | 1016.3 |
| 20260505032200 | 8 | 91 | 0.0 | 0.0 | 0.00 | 0.00 | 0.00 | 58 | 1016.3 |
| 20260505031919 | 9 | 91 | 0.0 | 0.0 | 0.00 | 0.00 | 0.00 | 57 | 1016.4 |
| 20260505031146 | 9 | 91 | 0.0 | 0.0 | 0.00 | 0.00 | 0.00 | 58 | 1016.4 |
| 20260505030637 | 9 | 91 | 0.0 | 0.0 | 0.00 | 0.00 | 0.00 | 56 | 1016.3 |
| 20260505030137 | 9 | 91 | 0.0 | 0.0 | 0.00 | 0.00 | 0.00 | 55 | 1016.0 |
| 20260505025637 | 10 | 91 | 0.0 | 3.2 | 0.00 | 0.00 | 0.00 | 51 | 1016.2 |
| 20260505025357 | 10 | 91 | 0.0 | 3.2 | 0.00 | 0.00 | 0.00 | 50 | 1016.3 |
| 20260505024628 | 10 | 114 | 0.0 | 0.0 | 0.00 | 0.00 | 0.00 | 51 | 1016.3 |
| 20260505024123 | 10 | 114 | 0.0 | 0.0 | 0.00 | 0.00 | 0.00 | 50 | 1016.2 |
| 20260505023622 | 10 | 114 | 0.0 | 4.8 | 0.00 | 0.00 | 0.00 | 49 | 1016.3 |
| 20260505023347 | 10 | 114 | 0.0 | 4.8 | 0.00 | 0.00 | 0.00 | 49 | 1016.3 |
| 20260505022626 | 10 | 142 | 0.0 | 3.2 | 0.00 | 0.00 | 0.00 | 49 | 1016.3 |
| 20260505022121 | 10 | 142 | 0.0 | 4.8 | 0.00 | 0.00 | 0.00 | 49 | 1016.4 |
| 20260505021559 | 10 | 144 | 0.0 | 9.7 | 0.00 | 0.00 | 0.00 | 49 | 1016.2 |
| 20260505021058 | 10 | 143 | 0.0 | 9.7 | 0.00 | 0.00 | 0.00 | 48 | 1016.3 |
| 20260505020555 | 10 | 159 | 3.2 | 12.9 | 0.00 | 0.00 | 0.00 | 48 | 1016.3 |
| 20260505020054 | 11 | 116 | 0.0 | 12.9 | 0.00 | 0.00 | 0.00 | 49 | 1016.4 |
| 20260505015548 | 11 | 111 | 1.6 | 6.4 | 0.00 | 0.00 | 0.00 | 48 | 1016.4 |
| 20260505015039 | 11 | 113 | 0.0 | 4.8 | 0.00 | 0.00 | 0.00 | 48 | 1016.3 |
| 20260505014542 | 11 | 111 | 0.0 | 12.9 | 0.00 | 0.00 | 0.00 | 49 | 1016.4 |
| 20260505014039 | 11 | 110 | 0.0 | 12.9 | 0.00 | 0.00 | 0.00 | 47 | 1016.4 |
| 20260505013747 | 11 | 215 | 3.2 | 14.5 | 0.00 | 0.00 | 0.00 | 47 | 1016.3 |
| 20260505013029 | 11 | 46 | 3.2 | 14.5 | 0.00 | 0.00 | 0.00 | 47 | 1016.3 |
| 20260505012529 | 11 | 88 | 1.6 | 12.9 | 0.00 | 0.00 | 0.00 | 48 | 1016.3 |
| 20260505012029 | 11 | 86 | 0.0 | 8.0 | 0.00 | 0.00 | 0.00 | 47 | 1016.3 |
| 20260505011758 | 11 | 117 | 1.6 | 14.5 | 0.00 | 0.00 | 0.00 | 48 | 1016.3 |
| 20260505011027 | 11 | 119 | 4.8 | 14.5 | 0.00 | 0.00 | 0.00 | 47 | 1016.3 |
| 20260505010525 | 11 | 123 | 1.6 | 9.7 | 0.00 | 0.00 | 0.00 | 47 | 1016.3 |
| 20260505010249 | 11 | 152 | 1.6 | 12.9 | 0.00 | 0.00 | 0.00 | 48 | 1016.4 |
| 20260505005525 | 11 | 110 | 3.2 | 16.1 | 0.00 | 0.00 | 0.00 | 47 | 1016.3 |
| 20260505005025 | 11 | 169 | 4.8 | 16.1 | 0.00 | 0.00 | 0.00 | 47 | 1016.4 |
| 20260505004758 | 11 | 115 | 3.2 | 19.3 | 0.00 | 0.00 | 0.00 | 46 | 1016.3 |
| 20260505004021 | 12 | 90 | 4.8 | 19.3 | 0.00 | 0.00 | 0.00 | 47 | 1016.4 |
| 20260505003521 | 12 | 110 | 3.2 | 11.3 | 0.00 | 0.00 | 0.00 | 47 | 1016.3 |
| 20260505003023 | 12 | 96 | 1.6 | 16.1 | 0.00 | 0.00 | 0.00 | 47 | 1016.2 |
| 20260505002516 | 12 | 99 | 1.6 | 17.7 | 0.00 | 0.00 | 0.00 | 46 | 1016.3 |
| 20260505002237 | 12 | 109 | 3.2 | 17.7 | 0.00 | 0.00 | 0.00 | 46 | 1016.3 |
| 20260505001511 | 12 | 92 | 1.6 | 12.9 | 0.00 | 0.00 | 0.00 | 46 | 1016.3 |
| 20260505001002 | 12 | 159 | 4.8 | 12.9 | 0.00 | 0.00 | 0.00 | 46 | 1016.3 |
| 20260505000502 | 12 | 134 | 1.6 | 16.1 | 0.00 | 0.00 | 0.00 | 47 | 1016.3 |
| 20260504235947 | 12 | 117 | 6.4 | 16.1 | 0.00 | 0.00 | 0.00 | 46 | 1016.2 |
| 20260504235447 | 12 | 222 | 3.2 | 12.9 | 0.00 | 0.00 | 0.00 | 46 | 1016.0 |
| 20260504234947 | 12 | 84 | 0.0 | 14.5 | 0.00 | 0.00 | 0.00 | 47 | 1016.0 |
| 20260504234448 | 12 | 133 | 0.0 | 14.5 | 0.00 | 0.00 | 0.00 | 47 | 1016.2 |
| 20260504233947 | 12 | 295 | 0.0 | 11.3 | 0.00 | 0.00 | 0.00 | 47 | 1016.0 |
| 20260504233707 | 12 | 345 | 1.6 | 12.9 | 0.00 | 0.00 | 0.00 | 47 | 1015.9 |
| 20260504232942 | 12 | 115 | 1.6 | 12.9 | 0.00 | 0.00 | 0.00 | 46 | 1015.9 |
| 20260504232443 | 12 | 101 | 1.6 | 9.7 | 0.00 | 0.00 | 0.00 | 47 | 1016.0 |
| 20260504231943 | 12 | 190 | 1.6 | 9.7 | 0.00 | 0.00 | 0.00 | 47 | 1016.0 |
| 20260504231438 | 12 | 233 | 0.0 | 9.7 | 0.00 | 0.00 | 0.00 | 47 | 1016.0 |
| 20260504231417 | 12 | 102 | 1.6 | 16.1 | 0.00 | 0.00 | 0.00 | 47 | 1016.0 |
| 20260504230433 | 13 | 117 | 6.4 | 16.1 | 0.00 | 0.00 | 0.00 | 45 | 1016.0 |
| 20260504225928 | 13 | 122 | 3.2 | 9.7 | 0.00 | 0.00 | 0.00 | 45 | 1016.2 |
| 20260504225431 | 13 | 119 | 1.6 | 11.3 | 0.00 | 0.00 | 0.00 | 46 | 1016.0 |
| 20260504224929 | 13 | 166 | 0.0 | 22.5 | 0.00 | 0.00 | 0.00 | 46 | 1015.9 |
| 20260504224655 | 13 | 118 | 8.0 | 22.5 | 0.00 | 0.00 | 0.00 | 46 | 1015.9 |
| 20260504223931 | 13 | 214 | 6.4 | 14.5 | 0.00 | 0.00 | 0.00 | 47 | 1015.9 |
| 20260504223429 | 13 | 120 | 4.8 | 14.5 | 0.00 | 0.00 | 0.00 | 44 | 1015.8 |
| 20260504223145 | 13 | 63 | 4.8 | 12.9 | 0.00 | 0.00 | 0.00 | 45 | 1015.9 |
| 20260504222425 | 13 | 279 | 4.8 | 12.9 | 0.00 | 0.00 | 0.00 | 44 | 1016.0 |
| 20260504221925 | 13 | 138 | 1.6 | 12.9 | 0.00 | 0.00 | 0.00 | 45 | 1015.9 |
| 20260504221425 | 14 | 97 | 3.2 | 16.1 | 0.00 | 0.00 | 0.00 | 44 | 1015.9 |
| 20260504220925 | 14 | 81 | 4.8 | 19.3 | 0.00 | 0.00 | 0.00 | 44 | 1015.9 |
| 20260504220426 | 14 | 126 | 3.2 | 19.3 | 0.00 | 0.00 | 0.00 | 43 | 1015.9 |
| 20260504215921 | 15 | 118 | 4.8 | 19.3 | 0.00 | 0.00 | 0.00 | 42 | 1015.8 |
| 20260504215420 | 15 | 148 | 1.6 | 19.3 | 0.00 | 0.00 | 0.00 | 42 | 1015.9 |
| 20260504214916 | 16 | 121 | 3.2 | 16.1 | 0.00 | 0.00 | 0.00 | 42 | 1015.9 |
| 20260504214416 | 16 | 95 | 3.2 | 16.1 | 0.00 | 0.00 | 0.00 | 40 | 1015.7 |
| 20260504214136 | 16 | 52 | 3.2 | 22.5 | 0.00 | 0.00 | 0.00 | 42 | 1015.6 |
| 20260504213416 | 16 | 98 | 4.8 | 22.5 | 0.00 | 0.00 | 0.00 | 41 | 1015.6 |
| 20260504212916 | 16 | 142 | 1.6 | 16.1 | 0.00 | 0.00 | 0.00 | 43 | 1015.4 |
| 20260504212416 | 16 | 124 | 3.2 | 14.5 | 0.00 | 0.00 | 0.00 | 40 | 1015.5 |
| 20260504211911 | 16 | 99 | 3.2 | 11.3 | 0.00 | 0.00 | 0.00 | 41 | 1015.4 |
| 20260504211412 | 16 | 125 | 3.2 | 11.3 | 0.00 | 0.00 | 0.00 | 42 | 1015.4 |
| 20260504210912 | 16 | 99 | 1.6 | 12.9 | 0.00 | 0.00 | 0.00 | 43 | 1015.4 |
| 20260504210412 | 15 | 27 | 3.2 | 12.9 | 0.00 | 0.00 | 0.00 | 42 | 1015.4 |
| 20260504210134 | 16 | 155 | 1.6 | 17.7 | 0.00 | 0.00 | 0.00 | 41 | 1015.4 |
| 20260504205417 | 16 | 34 | 3.2 | 17.7 | 0.00 | 0.00 | 0.00 | 41 | 1015.4 |
| 20260504205127 | 16 | 114 | 3.2 | 12.9 | 0.00 | 0.00 | 0.00 | 41 | 1015.3 |